Lexington Weather

Lexington, Massachusetts, USA

36°F
1/27/2020 7:04am 
  • Lexington Conditions: Overcast
  • Temperature: 36.1°F / 2.3°CWarmer 0.3°F than last hour.
  • Dew Point: 31.1°F 
  • Relative Humidity: 82%Decreased 1.0% since last hour.
  • Wind: Wind from WSW WSW 1 mph, 10-min avg: 1 mph, gust: 6 mph
  • Barometer: 29.57 in Steady
  • Visibility: 10 miles
  • Rain Today: 0.00 in
  •   

Regional Weather Roundup
for Boston / Norton, MA

        
000
ASUS41 KBOX 251110
RWRBOX

REGIONAL WEATHER ROUNDUP
NATIONAL WEATHER SERVICE BOSTON/NORTON MA
600 AM EST SAT JAN 25 2020

NOTE:  "FAIR" INDICATES FEW OR NO CLOUDS BELOW 12,000 FEET WITH NO 
SIGNIFICANT WEATHER AND/OR OBSTRUCTIONS TO VISIBILITY.

MAZALL-251200-
EASTERN MASSACHUSETTS
  
CITY           SKY/WX    TMP DP  RH WIND       PRES   REMARKS
BOSTON         CLOUDY    42  33  70 E12       30.30F                  
BEVERLY        MOCLDY    38  32  79 NE6       30.30F                  
LAWRENCE       MOCLDY    33  30  88 NE6       30.32F WCI  28          
BEDFORD        MOCLDY    34  30  85 NE3       30.29F                  
BLUE HILL        N/A     36  32  85 E15G22    30.26F WCI  27          
NORWOOD        CLOUDY    34  29  82 CALM      30.30S                  
MARSHFIELD     CLOUDY    43  39  87 E9        30.29F                  
PLYMOUTH       FAIR      37  35  92 E7        30.28F WCI  32          
TAUNTON        CLOUDY    28  25  88 CALM      30.28S                  
NEW BEDFORD    CLOUDY    34  33  96 NE3       30.27S                  
$$

MAZALL-251200-
CAPE COD AND THE ISLANDS
  
CITY           SKY/WX    TMP DP  RH WIND       PRES   REMARKS
FALMOUTH       MOCLDY    36  34  93 E6        30.27F WCI  31          
HYANNIS        CLOUDY    38  35  89 NE5       30.25F                  
CHATHAM        CLOUDY    42  39  89 E14G21    30.28F                  
PROVINCETOWN   MOCLDY    39  37  92 E12       30.29F WCI  32          
NANTUCKET      CLOUDY    43  40  89 E14G23    30.25S                  
MARTHAS VNYRD  CLOUDY    40  38  93 E10       30.26S                  
$$
 
MAZALL-251200-
CENTRAL AND WESTERN MASSACHUSETTS
  
CITY           SKY/WX    TMP DP  RH WIND       PRES   REMARKS
WORCESTER      CLOUDY    33  30  88 NE9       30.23F WCI  25          
FITCHBURG      CLOUDY    35  30  82 CALM      30.30F                  
ORANGE         FOG       26  23  88 CALM      30.27F VSB 3/4          
SPRINGFIELD    MOCLDY    33  29  86 N3        30.25S                  
WESTFIELD      MOCLDY    34  28  79 N6        30.26S WCI  29          
NORTH ADAMS    FAIR      35  26  69 E18G25    30.21F WCI  24          
PITTSFIELD     MOCLDY    34  26  72 E8        30.17S WCI  27          
$$
 
RIZALL-251200-
RHODE ISLAND
  
CITY           SKY/WX    TMP DP  RH WIND       PRES   REMARKS
PROVIDENCE     CLOUDY    36  34  92 NE9       30.27F WCI  29          
NEWPORT        CLOUDY    38  34  85 NE8       30.24F                  
BLOCK ISLAND   CLOUDY    39  37  92 E15G23    30.22F WCI  31          
SMITHFIELD     CLOUDY    36  34  92 NE9       30.26F WCI  29          
WESTERLY       CLOUDY    41  34  76 NE9       30.23F                  
$$
 
CTZALL-251200-
CONNECTICUT
  
CITY           SKY/WX    TMP DP  RH WIND       PRES   REMARKS
BRADLEY INTL   MOCLDY    33  29  85 N6        30.26S WCI  28          
HARTFORD       CLOUDY    37  31  78 NE7       30.25S WCI  32          
BRIDGEPORT     CLOUDY    37  32  82 NE13      30.18F WCI  29          
DANBURY        MOCLDY    33  30  88 E9        30.19F WCI  25          
GROTON         CLOUDY    39  36  89 NE16      30.21F WCI  30          
NEW HAVEN      CLOUDY    38  33  82 NE12      30.19F WCI  30          
CHESTER        NOT AVBL                                               
MERIDEN        CLOUDY    36  31  82 NE7       30.21F WCI  30          
WILLIMANTIC    CLOUDY    36  32  85 NE9       30.25F WCI  29          
OXFORD         CLOUDY    33  31  92 E12G23    30.18F WCI  24          
$$

MEZ002-015-021-024-NHZ003-005-008-011-012-014-VTZ005-008-251200-
NORTHERN NEW ENGLAND
  
CITY           SKY/WX    TMP DP  RH WIND       PRES   REMARKS
PORTLAND ME    CLOUDY    36  30  79 NE7       30.37F WCI  30          
BANGOR ME      CLOUDY    28  25  88 CALM      30.41F                  
CONCORD NH     CLOUDY    35  30  82 NE6       30.31F WCI  30          
MANCHESTER NH  CLOUDY    36  31  82 N5        30.30F                  
NASHUA NH      CLOUDY    35  34  96 NE3       30.32F                  
PORTSMOUTH NH  CLOUDY    36  31  84 N7        30.32F WCI  30          
JAFFREY NH     CLOUDY    35  29  78 VRB6      30.26F WCI  30          
KEENE NH       FAIR      20  18  92 CALM      30.28F                  
BURLINGTON VT  FAIR      29  23  78 S7        30.23S WCI  22          
MT. WASHINGTON MOCLDY    27   3  36 S23         N/A  WCI  12          
$$

NYZ052-076-251200-
EASTERN NEW YORK
  
CITY           SKY/WX    TMP DP  RH WIND       PRES   REMARKS
ALBANY         CLOUDY    23  16  74 CALM      30.22F                  
NEW YORK CITY  CLOUDY    39  34  82 NE17      30.13F WCI  30          
$$
 
ANZALL-251200-
MARINE OBSERVATIONS
  
STATION/POSITION TIME  TEMP    WIND        PRES    VSBY  WAVE
                       AIR SEA DIR/SP/G                  HT/PER
                 (UTC) (F)     (DEG/KT/KT) (MB)    (MI)  (FT/S)
BOSTON BUOY      1050   42 43   70/ 14/ 16 1025.7F         3/ 9
BUZZARDS BAY     1000   38      50/ 15/ 17 1025.0F
NANTUCKET SOUND  1040                        N/A           2/ 3
MASS BAY-STELLWA 1004   41 41  110/ 12/ 14 1024.9F  1 7/8  5/11
ISLE OF SHOALS   1100   41      80/ 14/ 15 1026.6F
S OF BLOCK IS    1100      45                N/A           5/10
$$

......................KEY.........................
  SKY/WX - SKY CONDITION/PRESENT WEATHER
  TMP    - TEMPERATURE IN FAHRENHEIT
  DWPT   - DEWPOINT IN FAHRENHEIT
  RH     - RELATIVE HUMIDITY IN PERCENT
  WIND   - DIRECTION AND SPEED IN MPH
  PRES   - MEAN SEA LEVEL PRESSURE IN INCHES OF HG
  WCI    - WIND CHILL INDEX
  VSB    - VISIBILITY IN MILES
  HX     - HEAT INDEX
  TC     - TEMPERATURE IN CELSIUS
  VRB    - VARIABLE WIND DIRECTION
  N/A    - NOT AVAILABLE
  
      

Other recent Regional Weather Roundups

Mon Jan 27, 7:00am

Mon Jan 27, 6:10am

Mon Jan 27, 6:00am

Mon Jan 27, 5:10am

Mon Jan 27, 5:00am

Mon Jan 27, 4:10am

Mon Jan 27, 4:01am

Mon Jan 27, 3:10am

Mon Jan 27, 3:00am

Mon Jan 27, 2:10am

Mon Jan 27, 2:00am

Mon Jan 27, 1:10am

Mon Jan 27, 1:00am

Mon Jan 27, 12:10am

Mon Jan 27, 12:00am

Sun Jan 26, 11:10pm

Sun Jan 26, 11:00pm

Sun Jan 26, 10:10pm

Sun Jan 26, 10:00pm

Sun Jan 26, 9:10pm

Sun Jan 26, 9:01pm

Sun Jan 26, 8:10pm

Sun Jan 26, 8:00pm

Sun Jan 26, 7:10pm

Sun Jan 26, 7:00pm

Sun Jan 26, 6:10pm

Sun Jan 26, 6:01pm

Sun Jan 26, 5:10pm

Sun Jan 26, 5:01pm

Sun Jan 26, 4:10pm

Sun Jan 26, 4:00pm

Sun Jan 26, 3:10pm

Sun Jan 26, 3:01pm

Sun Jan 26, 2:10pm

Sun Jan 26, 2:01pm

Sun Jan 26, 1:10pm

Sun Jan 26, 1:00pm

Sun Jan 26, 12:10pm

Sun Jan 26, 12:00pm

Sun Jan 26, 11:10am

Sun Jan 26, 11:01am

Sun Jan 26, 10:10am

Sun Jan 26, 10:01am

Sun Jan 26, 9:10am

Sun Jan 26, 9:00am

Sun Jan 26, 8:10am

Sun Jan 26, 8:00am

Sun Jan 26, 7:10am

Sun Jan 26, 7:00am

Sun Jan 26, 6:10am

Sun Jan 26, 6:00am

Sun Jan 26, 5:10am

Sun Jan 26, 5:00am

Sun Jan 26, 4:10am

Sun Jan 26, 4:01am

Sun Jan 26, 3:10am

Sun Jan 26, 3:01am

Sun Jan 26, 2:10am

Sun Jan 26, 2:00am

Sun Jan 26, 1:10am

Sun Jan 26, 1:00am

Sun Jan 26, 12:10am

Sun Jan 26, 12:00am

Sat Jan 25, 11:10pm

Sat Jan 25, 11:00pm

Sat Jan 25, 10:10pm

Sat Jan 25, 10:01pm

Sat Jan 25, 9:10pm

Sat Jan 25, 9:01pm

Sat Jan 25, 8:10pm

Sat Jan 25, 8:01pm

Sat Jan 25, 7:10pm

Sat Jan 25, 7:01pm

Sat Jan 25, 6:10pm

Sat Jan 25, 6:01pm

Sat Jan 25, 5:10pm

Sat Jan 25, 5:01pm

Sat Jan 25, 4:10pm

Sat Jan 25, 4:00pm

Sat Jan 25, 3:10pm

Sat Jan 25, 3:01pm

Sat Jan 25, 2:10pm

Sat Jan 25, 2:00pm

Sat Jan 25, 1:10pm

Sat Jan 25, 1:00pm

Sat Jan 25, 12:10pm

Sat Jan 25, 12:00pm

Sat Jan 25, 11:10am

Sat Jan 25, 11:00am

Sat Jan 25, 10:10am

Sat Jan 25, 10:00am

Sat Jan 25, 9:10am

Sat Jan 25, 9:00am

Sat Jan 25, 8:10am

Sat Jan 25, 8:01am

Sat Jan 25, 7:10am

Sat Jan 25, 7:00am

Sat Jan 25, 6:00am

Sat Jan 25, 5:10am

Sat Jan 25, 5:00am

Sat Jan 25, 4:10am

Sat Jan 25, 4:00am

Sat Jan 25, 3:10am

Sat Jan 25, 3:00am

Sat Jan 25, 2:10am

Sat Jan 25, 2:01am

Sat Jan 25, 1:10am

Sat Jan 25, 1:00am

Sat Jan 25, 12:10am

Sat Jan 25, 12:00am

Fri Jan 24, 11:10pm

Fri Jan 24, 11:00pm

Fri Jan 24, 10:10pm

Fri Jan 24, 10:00pm

Fri Jan 24, 9:10pm

Fri Jan 24, 9:00pm

Fri Jan 24, 8:10pm

Fri Jan 24, 8:01pm

Fri Jan 24, 7:10pm

Fri Jan 24, 7:00pm

Fri Jan 24, 6:10pm

Fri Jan 24, 6:01pm

Fri Jan 24, 5:10pm

Fri Jan 24, 5:01pm

Fri Jan 24, 4:10pm

Fri Jan 24, 4:00pm

Fri Jan 24, 3:10pm

Fri Jan 24, 3:00pm

Fri Jan 24, 2:10pm

Fri Jan 24, 2:01pm

Fri Jan 24, 1:10pm

Fri Jan 24, 1:00pm

Fri Jan 24, 12:10pm

Fri Jan 24, 12:01pm

Fri Jan 24, 11:10am

Fri Jan 24, 11:01am

Fri Jan 24, 10:10am

Fri Jan 24, 10:00am

Fri Jan 24, 9:10am

Fri Jan 24, 9:00am

Fri Jan 24, 8:10am

Fri Jan 24, 8:01am

Fri Jan 24, 7:10am

Meta data:

ID: fea2a7e5-7767-4b1c-81a6-59fa932f2ad3
Link: https://api.weather.gov/products/fea2a7e5-7767-4b1c-81a6-59fa932f2ad3